Simultaneous Nadir Overpasses (SNOs) Predictions

Prediction of SNOs between NOAA-20 and AQUA Satellite Orbit:

Table of predicted SNOs for the next 14.0 days since TLE Epoch: 10/24/2020
Index Date (NOAA-20) Time (NOAA-20) Lat,Lon (NOAA-20) SZA (NOAA-20 ) Date (AQUA) Time (AQUA) Lat,Lon (AQUA) SZA (AQUA ) Distance(km) Time Diff (sec)
1 10/24/2020 22:12:41 75.81, 85.12 108.44 10/24/2020 22:13:22 75.80, 85.05 108.42 2.32 41
2 10/24/2020 23:03:06 -76.76,-104.17 72.65 10/24/2020 23:02:30 -76.76,-104.23 72.61 1.59 36
3 10/27/2020 14:29:31 76.12,-158.06 108.95 10/27/2020 14:29:45 76.12,-158.12 108.96 1.60 14
4 10/27/2020 15:19:57 -77.01, 12.61 72.08 10/27/2020 15:18:54 -77.01, 12.56 72.01 1.38 63
5 10/30/2020 05:56:01 -75.33, 147.80 69.32 10/30/2020 05:57:05 -75.32, 147.78 69.37 0.80 64
6 10/30/2020 06:46:20 76.47, -41.05 109.41 10/30/2020 06:46:07 76.47, -41.11 109.43 1.68 13
7 11/01/2020 22:12:46 -75.82, -94.86 69.04 11/01/2020 22:13:23 -75.82, -94.92 69.06 1.70 37
8 11/01/2020 23:03:07 76.86, 76.20 109.79 11/01/2020 23:02:27 76.85, 76.10 109.85 2.58 40
9 11/04/2020 14:29:41 -75.90, 21.15 68.31 11/04/2020 14:29:50 -75.91, 21.23 68.34 2.43 9
